GW0881 Weather Reports


time (UTC)temp
C
wind
direction
speed
KPH
gust
KPH
rain 1hr
cm
rain 24hr
cm
rain mn
cm
humidity
%
barometer
mb
20260504081916 12 202 3.2 3.2 0.00 0.00 0.00 45 995.6
20260504081413 12 231 3.2 3.2 0.00 0.00 0.00 46 995.9
20260504080909 12 204 3.2 3.2 0.00 0.00 0.00 45 996.2
20260504080406 12 194 0.0 1.6 0.00 0.00 0.00 46 996.4
20260504070333 12 220 1.6 1.6 0.00 0.00 0.00 48 997.1
20260504050721 13 199 1.6 1.6 0.00 0.00 0.00 44 999.6
20260504050218 13 215 1.6 3.2 0.00 0.00 0.00 45 999.8
20260504045715 13 204 1.6 1.6 0.00 0.00 0.00 46 1000.0
20260504045215 13 207 1.6 3.2 0.00 0.00 0.00 45 1000.0
20260504044714 13 219 1.6 3.2 0.00 0.00 0.00 45 1000.0
20260504044211 13 208 3.2 3.2 0.00 0.00 0.00 44 1000.1
20260504043708 13 199 1.6 3.2 0.00 0.00 0.00 45 1000.3
20260504043204 13 203 1.6 1.6 0.00 0.00 0.00 44 1000.3
20260504042702 13 206 1.6 1.6 0.00 0.00 0.00 44 1000.4
20260504042158 13 214 1.6 1.6 0.00 0.00 0.00 44 1000.4
20260504041654 13 200 1.6 3.2 0.00 0.00 0.00 43 1000.4
20260504041150 13 201 1.6 3.2 0.00 0.00 0.00 43 1000.6
20260504040647 13 208 3.2 3.2 0.00 0.00 0.00 43 1000.8
20260504040144 13 212 1.6 1.6 0.00 0.00 0.00 45 1000.9
20260504035641 12 212 1.6 1.6 0.00 0.00 0.00 45 1000.8
20260504035138 11 202 1.6 1.6 0.00 0.00 0.00 48 1001.1
20260504034635 12 211 1.6 1.6 0.00 0.00 0.00 54 1001.1
20260504034132 11 208 1.6 1.6 0.00 0.00 0.00 52 1001.3
20260504033630 11 196 1.6 1.6 0.00 0.00 0.00 55 1001.2
20260504033127 11 199 1.6 1.6 0.00 0.00 0.00 53 1001.6
20260504032624 11 198 1.6 1.6 0.00 0.00 0.00 56 1001.6
20260504032121 11 205 1.6 1.6 0.00 0.00 0.00 57 1001.7
20260504031618 11 200 1.6 1.6 0.00 0.00 0.00 55 1001.8
20260504031114 11 211 1.6 1.6 0.00 0.00 0.00 56 1001.8
20260504030611 11 213 1.6 1.6 0.00 0.00 0.00 59 1001.9
20260504030108 11 208 1.6 1.6 0.00 0.00 0.00 56 1001.9
20260504025605 11 213 0.0 1.6 0.00 0.00 0.00 59 1002.0
20260504025102 11 206 1.6 1.6 0.00 0.00 0.00 56 1002.0
20260504024559 11 212 0.0 0.0 0.00 0.00 0.00 59 1002.1
20260504024055 12 205 0.0 1.6 0.00 0.00 0.00 54 1002.0
20260504023552 12 203 1.6 1.6 0.00 0.00 0.00 54 1002.0
20260504023048 12 203 0.0 1.6 0.00 0.00 0.00 49 1002.0
20260504022544 12 200 0.0 0.0 0.00 0.00 0.00 53 1001.9
20260504022040 13 209 0.0 0.0 0.00 0.00 0.00 53 1002.1
20260504021538 13 206 0.0 0.0 0.00 0.00 0.00 48 1002.1
20260504021035 13 206 0.0 0.0 0.00 0.00 0.00 48 1002.1
20260504020532 14 204 0.0 0.0 0.00 0.00 0.00 48 1002.0
20260504020028 15 206 0.0 1.6 0.00 0.00 0.00 43 1002.1
20260504015524 15 209 0.0 0.0 0.00 0.00 0.00 41 1002.2
20260504015020 16 216 0.0 0.0 0.00 0.00 0.00 38 1002.0
20260504014517 16 221 1.6 1.6 0.00 0.00 0.00 36 1002.2
20260504014014 16 223 0.0 1.6 0.00 0.00 0.00 36 1002.2
20260504013512 16 234 1.6 1.6 0.00 0.00 0.00 35 1002.2
20260504013009 16 226 1.6 1.6 0.00 0.00 0.00 36 1002.2
20260504012506 17 203 0.0 1.6 0.00 0.00 0.00 39 1002.3
20260504012004 17 225 0.0 1.6 0.00 0.00 0.00 34 1002.2
20260504011500 17 234 0.0 0.0 0.00 0.00 0.00 33 1002.1
20260504010956 18 234 1.6 1.6 0.00 0.00 0.00 32 1002.1
20260504010452 18 249 1.6 3.2 0.00 0.00 0.00 31 1002.3
20260504005948 18 239 1.6 1.6 0.00 0.00 0.00 30 1002.2
20260504005445 18 230 0.0 1.6 0.00 0.00 0.00 30 1002.3
20260504004943 19 257 1.6 3.2 0.00 0.00 0.00 29 1002.6
20260504004440 19 256 3.2 3.2 0.00 0.00 0.00 29 1002.2
20260504003937 19 249 1.6 3.2 0.00 0.00 0.00 29 1002.4
20260504003433 19 265 1.6 3.2 0.00 0.00 0.00 29 1002.4
20260504002930 19 250 1.6 1.6 0.00 0.00 0.00 28 1002.3
20260504002427 19 244 1.6 1.6 0.00 0.00 0.00 28 1002.4
20260504001924 19 237 1.6 1.6 0.00 0.00 0.00 28 1002.4
20260504001422 19 266 3.2 3.2 0.00 0.00 0.00 27 1002.4
20260504000918 20 282 3.2 3.2 0.00 0.00 0.00 28 1002.6
20260504000416 19 259 4.8 4.8 0.00 0.00 0.00 26 1002.6
20260503235913 20 281 6.4 8.0 0.00 0.00 0.00 26 1002.6
20260503235411 20 290 4.8 4.8 0.00 0.00 0.00 25 1002.6
20260503234908 20 304 8.0 9.7 0.00 0.00 0.00 25 1002.7
20260503234405 20 206 6.4 9.7 0.00 0.00 0.00 25 1002.6
20260503233903 20 231 4.8 8.0 0.00 0.00 0.00 27 1002.6
20260503233359 20 293 8.0 9.7 0.00 0.00 0.00 25 1002.7
20260503232855 20 298 8.0 9.7 0.00 0.00 0.00 28 1002.6
20260503232353 20 315 6.4 8.0 0.00 0.00 0.00 28 1002.9
20260503231851 20 279 4.8 4.8 0.00 0.00 0.00 27 1002.8
20260503231347 20 297 6.4 8.0 0.00 0.00 0.00 26 1002.9
20260503230844 20 288 6.4 8.0 0.00 0.00 0.00 26 1002.6
20260503230340 20 279 4.8 8.0 0.00 0.00 0.00 26 1002.8
20260503225839 20 294 6.4 8.0 0.00 0.00 0.00 26 1002.9
20260503225334 20 316 8.0 11.3 0.00 0.00 0.00 26 1002.7
20260503224831 20 335 9.7 12.9 0.00 0.00 0.00 26 1002.8
20260503224328 20 261 6.4 8.0 0.00 0.00 0.00 26 1003.0
20260503223826 20 274 6.4 8.0 0.00 0.00 0.00 26 1003.0
20260503223323 20 287 8.0 9.7 0.00 0.00 0.00 25 1003.1
20260503222819 20 296 9.7 11.3 0.00 0.00 0.00 26 1003.1
20260503222317 20 283 6.4 8.0 0.00 0.00 0.00 27 1002.8
20260503221815 20 289 8.0 9.7 0.00 0.00 0.00 27 1003.0
20260503221314 20 289 6.4 8.0 0.00 0.00 0.00 27 1003.1
20260503220809 20 291 4.8 4.8 0.00 0.00 0.00 27 1003.2
20260503220306 20 320 8.0 11.3 0.00 0.00 0.00 27 1003.3
20260503215803 20 274 4.8 4.8 0.00 0.00 0.00 26 1003.1
20260503215300 20 202 1.6 3.2 0.00 0.00 0.00 27 1003.5
20260503214758 20 300 8.0 9.7 0.00 0.00 0.00 25 1003.4
20260503214254 20 314 8.0 11.3 0.00 0.00 0.00 24 1003.5
20260503213752 20 298 6.4 8.0 0.00 0.00 0.00 25 1003.6
20260503213249 20 277 4.8 8.0 0.00 0.00 0.00 26 1003.6
20260503212746 20 316 6.4 9.7 0.00 0.00 0.00 25 1003.7
20260503212244 20 9 9.7 12.9 0.00 0.00 0.00 25 1003.8
20260503211741 20 336 8.0 9.7 0.00 0.00 0.00 26 1003.6
20260503211237 20 319 8.0 11.3 0.00 0.00 0.00 24 1003.8
20260503210733 20 341 4.8 4.8 0.00 0.00 0.00 26 1003.9
20260503210231 20 349 11.3 14.5 0.00 0.00 0.00 24 1003.9
20260503205726 20 320 6.4 8.0 0.00 0.00 0.00 25 1004.1
20260503205222 20 322 8.0 9.7 0.00 0.00 0.00 24 1004.2
20260503204719 20 355 12.9 17.7 0.00 0.00 0.00 25 1004.4
20260503204217 20 24 4.8 4.8 0.00 0.00 0.00 27 1004.0
20260503203713 20 1 14.5 16.1 0.00 0.00 0.00 25 1004.3
20260503203211 20 39 11.3 12.9 0.00 0.00 0.00 26 1004.2
20260503202708 20 289 8.0 9.7 0.00 0.00 0.00 27 1004.2
20260503202206 20 336 8.0 12.9 0.00 0.00 0.00 26 1004.4
20260503201704 20 246 3.2 4.8 0.00 0.00 0.00 28 1004.3
20260503201201 20 289 4.8 4.8 0.00 0.00 0.00 26 1004.4
20260503200657 20 293 9.7 11.3 0.00 0.00 0.00 28 1004.4
20260503200154 20 17 11.3 12.9 0.00 0.00 0.00 24 1004.4
20260503195650 20 19 12.9 14.5 0.00 0.00 0.00 25 1004.5
20260503195147 19 301 8.0 9.7 0.00 0.00 0.00 29 1004.6
20260503194644 19 28 4.8 8.0 0.00 0.00 0.00 29 1004.7
20260503194140 20 44 6.4 8.0 0.00 0.00 0.00 28 1004.6
20260503193637 19 37 12.9 14.5 0.00 0.00 0.00 27 1004.5
20260503193132 18 348 4.8 8.0 0.00 0.00 0.00 33 1004.6
20260503192628 19 347 8.0 9.7 0.00 0.00 0.00 31 1004.7
20260503192124 19 25 11.3 17.7 0.00 0.00 0.00 32 1004.8
20260503191621 19 38 9.7 12.9 0.00 0.00 0.00 32 1004.8
20260503191118 20 4 14.5 17.7 0.00 0.00 0.00 31 1005.0
20260503190615 18 19 12.9 20.9 0.00 0.00 0.00 33 1004.9
20260503190112 19 27 11.3 14.5 0.00 0.00 0.00 30 1005.0
20260503185609 18 5 9.7 12.9 0.00 0.00 0.00 31 1004.9
20260503185109 18 310 9.7 11.3 0.00 0.00 0.00 31 1005.1
20260503184604 19 28 11.3 11.3 0.00 0.00 0.00 30 1005.1
20260503184101 19 340 9.7 11.3 0.00 0.00 0.00 30 1005.2
20260503183557 18 44 11.3 14.5 0.00 0.00 0.00 31 1005.2
20260503183055 19 16 8.0 12.9 0.00 0.00 0.00 33 1005.1
20260503182553 19 13 19.3 22.5 0.00 0.00 0.00 30 1005.2
20260503182051 19 319 6.4 8.0 0.00 0.00 0.00 32 1005.2
20260503181547 18 337 4.8 4.8 0.00 0.00 0.00 34 1005.1
20260503181044 18 301 9.7 11.3 0.00 0.00 0.00 31 1005.4
20260503180541 18 20 11.3 14.5 0.00 0.00 0.00 31 1005.3
20260503180038 18 2 11.3 11.3 0.00 0.00 0.00 31 1005.6
20260503175536 18 9 8.0 9.7 0.00 0.00 0.00 31 1005.5
20260503175033 18 321 11.3 14.5 0.00 0.00 0.00 31 1005.4
20260503174530 18 282 8.0 9.7 0.00 0.00 0.00 31 1005.3
20260503174026 18 327 8.0 9.7 0.00 0.00 0.00 34 1005.6
20260503173521 18 356 8.0 11.3 0.00 0.00 0.00 35 1005.5
20260503173018 18 6 8.0 9.7 0.00 0.00 0.00 37 1005.5
20260503172516 18 315 11.3 14.5 0.00 0.00 0.00 37 1005.5
20260503172012 18 329 12.9 16.1 0.00 0.00 0.00 36 1005.5
20260503171509 18 37 8.0 12.9 0.00 0.00 0.00 40 1005.8
20260503171006 18 5 8.0 11.3 0.00 0.00 0.00 39 1005.7
20260503170503 18 350 14.5 16.1 0.00 0.00 0.00 38 1005.7
20260503150855 16 339 6.4 8.0 0.00 0.00 0.00 48 1005.2
20260503150351 16 347 11.3 14.5 0.00 0.00 0.00 48 1005.3
20260503140315 14 27 6.4 8.0 0.00 0.00 0.00 51 1005.3
20260503131245 12 333 14.5 16.1 0.00 0.00 0.00 57 1004.6
20260503130742 12 353 16.1 17.7 0.00 0.00 0.00 58 1004.9
20260503130240 12 28 8.0 11.3 0.00 0.00 0.00 59 1004.6
20260503120206 10 256 1.6 3.2 0.00 0.00 0.00 60 1003.7
20260503110633 10 223 0.0 1.6 0.00 0.00 0.00 59 1003.0
20260503110130 10 255 1.6 1.6 0.00 0.00 0.00 58 1003.0